Vorticity
12 10 11 13 12 11 13 14 13 11 9 6 4 5 9 12 14 17 17 15 16 17 16 12 9 8 9 9 10 10 10 11 13 10 6 8 17 23 20 15 15 16 16 21 30 36 38 38 32 23 21 25 26 21 19 30 47 49 34 17 11 12 11 9 9 7 9 14 12 7 8 7 4 10 19 11 -10 -16 -7 -4 -1 8 14 15 17
12 11 10 13 14 12 11 13 14 13 10 7 5 4 6 9 12 15 17 16 16 17 17 15 12 8 8 8 9 9 9 10 12 11 7 8 16 24 23 17 13 15 17 18 25 35 40 40 38 31 23 22 26 27 22 18 27 45 52 40 21 13 12 10 9 7 6 11 16 14 8 7 7 5 11 20 15 -3 -16 -18 -12 -5 -2 -2 1
11 11 11 12 15 14 12 11 13 14 12 9 6 5 5 7 10 14 16 16 17 18 17 17 15 11 7 7 7 7 7 7 10 10 6 7 16 23 23 21 15 12 15 17 19 28 37 39 37 34 27 21 22 26 25 20 18 25 43 54 45 27 16 12 9 7 5 6 12 17 15 9 7 6 5 11 21 19 2 -18 -28 -26 -19 -15 -13
11 11 10 10 14 17 14 11 12 13 13 12 8 5 5 6 8 12 14 16 17 18 18 17 17 14 9 6 7 7 6 5 6 10 7 5 11 19 21 21 19 14 13 16 17 21 30 34 33 32 28 22 21 24 23 21 19 18 24 40 53 47 32 20 13 8 5 3 7 14 18 17 11 8 6 4 9 19 21 5 -17 -30 -27 -17 -8
11 10 11 10 12 17 16 12 12 13 13 13 10 6 4 5 7 10 13 14 16 18 19 18 18 17 13 8 6 6 7 6 4 6 8 6 7 13 17 19 20 17 13 14 16 16 21 28 29 27 26 22 21 23 23 18 16 18 18 24 39 51 48 36 23 15 8 3 1 5 12 18 18 14 11 8 4 7 16 20 13 -2 -18 -24 -17
11 9 10 11 10 15 19 15 11 13 14 13 12 8 5 5 6 8 12 13 14 17 20 20 19 19 16 11 8 6 6 7 5 4 5 7 7 8 12 16 20 19 15 14 15 15 16 20 24 24 23 22 22 22 22 19 15 15 17 19 26 39 50 52 42 28 19 11 4 1 4 10 16 17 16 14 10 6 5 10 17 21 12 -8 -23
12 11 9 10 10 12 18 19 13 11 13 13 12 10 6 5 5 6 10 12 13 16 19 21 20 21 20 15 10 7 6 7 6 4 3 5 7 7 8 12 17 19 18 15 14 15 16 15 17 20 21 21 22 21 19 17 15 13 14 15 18 24 36 50 56 48 36 24 14 6 3 5 9 13 16 17 16 13 9 6 6 13 22 19 -1
11 12 10 9 11 11 16 21 16 12 12 13 13 10 8 6 5 5 7 10 13 15 18 21 21 21 23 19 13 9 7 7 7 5 3 1 4 7 6 9 13 16 18 18 15 14 15 16 16 16 18 19 20 20 19 16 14 13 12 11 12 15 19 29 44 55 56 47 33 19 9 5 6 9 12 15 18 19 15 13 10 6 10 20 20
8 11 11 9 10 10 14 21 19 13 12 14 13 11 9 7 5 5 6 8 11 14 17 21 21 21 24 23 18 12 8 7 7 7 5 1 -0 4 7 7 9 13 17 19 19 16 13 15 17 16 16 16 17 19 19 20 19 18 17 16 15 14 15 15 20 31 45 54 55 45 30 16 7 6 8 10 13 17 18 17 17 13 9 10 16
7 9 11 11 11 9 12 19 20 15 12 13 14 12 10 8 6 5 5 6 9 12 15 20 21 21 24 25 22 16 11 9 7 6 7 5 -0 -1 4 7 7 7 12 17 20 21 17 14 14 16 17 16 15 16 16 18 19 20 20 21 21 21 20 20 19 17 21 30 41 49 50 41 26 13 10 10 10 12 15 17 19 18 15 14 13
6 7 10 11 11 10 11 17 20 17 13 12 14 13 11 9 7 6 5 5 7 10 13 18 21 22 24 26 24 20 15 11 9 8 7 7 4 -1 -2 4 8 6 6 10 16 21 23 20 15 13 15 16 16 15 15 15 14 14 15 16 18 20 21 23 25 25 24 21 21 27 36 44 43 31 20 14 11 10 9 13 18 19 16 17 18
6 6 8 11 13 10 10 15 20 18 15 12 13 13 11 10 8 7 6 5 6 8 11 15 19 23 26 26 24 23 19 14 11 10 8 7 8 4 -2 -2 4 8 7 6 8 13 20 24 23 18 14 13 15 15 15 16 14 12 11 12 13 13 15 17 20 23 28 29 27 24 23 28 35 38 34 26 19 15 9 6 9 12 13 15 16
6 5 6 9 13 10 9 15 19 19 16 13 12 13 11 10 10 8 6 5 5 7 9 12 16 22 26 26 25 24 22 17 13 12 11 10 8 7 3 -1 -1 4 9 9 6 6 10 17 23 24 20 14 13 14 15 15 16 15 13 12 13 12 12 13 15 18 23 28 32 34 32 28 26 28 32 32 30 26 20 13 9 7 8 11 14
6 6 7 8 11 11 9 14 18 20 18 14 12 12 11 10 10 9 7 6 5 5 7 10 14 20 24 26 25 25 24 20 14 12 12 13 12 8 5 4 0 -1 3 9 10 7 5 8 14 21 26 23 16 12 13 15 15 15 15 13 11 12 13 12 12 14 19 25 32 37 38 37 33 28 26 26 28 30 29 26 22 16 10 7 9
6 5 7 8 9 10 10 12 16 19 19 16 13 12 11 10 11 10 8 7 6 5 6 8 12 18 23 26 25 25 26 23 15 12 13 14 15 13 7 5 4 1 -1 2 9 11 8 6 7 10 17 25 26 18 12 12 14 14 14 13 11 10 11 12 13 14 16 20 27 35 39 41 39 35 32 29 26 26 27 28 27 26 22 15 9
8 5 9 10 8 8 9 10 14 19 20 18 14 11 11 10 10 10 9 8 6 5 5 7 10 15 20 25 26 25 26 25 18 12 13 14 15 17 13 7 5 4 1 -1 2 8 11 9 7 6 6 13 24 27 21 14 12 13 13 12 11 10 9 10 12 14 14 14 18 25 35 42 42 38 37 37 35 31 27 25 25 26 29 28 22
10 4 10 14 8 7 9 9 12 17 19 19 16 12 10 10 10 10 10 8 7 6 5 5 8 13 18 23 27 25 25 27 22 14 12 13 15 18 17 13 8 5 4 2 -0 3 9 11 9 8 7 5 10 21 27 22 15 13 13 12 12 10 9 10 12 12 11 11 11 15 24 35 42 41 39 39 41 42 38 32 28 27 28 31 32
10 4 13 17 9 7 8 8 11 15 18 20 18 13 11 9 9 11 10 9 8 6 5 5 6 10 15 21 26 26 25 27 24 16 12 12 14 17 17 15 14 10 6 4 2 0 4 10 11 9 9 9 6 8 18 25 22 16 13 13 13 11 8 9 10 10 12 12 10 9 12 19 30 38 40 39 39 42 45 45 41 38 34 32 33
4 7 16 18 12 8 7 7 10 13 17 21 19 14 11 9 9 10 10 10 9 7 5 5 6 8 13 19 25 26 25 27 25 18 13 11 13 17 17 14 15 15 11 7 5 2 2 6 11 10 7 10 11 7 8 16 23 22 16 12 11 12 12 11 9 7 9 11 11 9 8 8 14 24 33 40 42 43 45 45 45 46 46 42 39
7 14 18 19 14 9 7 7 9 11 15 22 22 15 11 9 9 10 10 10 9 8 6 4 5 8 11 16 23 26 26 27 26 20 15 11 11 15 18 16 13 15 15 12 8 6 3 4 8 10 8 8 11 11 7 8 14 21 22 17 12 10 10 10 10 9 8 8 8 9 9 8 7 9 16 25 35 43 46 43 41 45 48 45 43
17 19 17 18 15 9 9 8 7 10 14 20 23 18 11 9 9 9 10 11 9 8 7 5 4 6 8 13 20 26 26 25 25 23 18 12 9 11 17 19 15 13 15 16 13 9 6 5 6 8 9 8 9 12 13 10 8 11 18 21 18 16 13 9 8 9 9 8 8 7 7 7 7 6 6 8 13 23 31 34 36 42 46 45 44
18 14 12 16 14 11 12 9 5 8 14 19 23 19 12 9 9 8 9 11 10 9 8 6 5 5 6 10 17 24 26 25 25 25 21 14 7 7 13 19 19 16 14 14 15 13 10 8 6 7 9 9 8 9 12 13 12 10 9 11 14 17 19 17 14 11 8 8 9 9 8 7 6 6 6 6 5 6 10 14 20 28 36 40 42
12 9 10 15 16 15 13 10 7 7 11 19 23 19 13 10 9 8 9 10 10 10 8 6 5 5 6 8 14 20 24 26 27 27 23 17 9 5 7 13 18 19 16 13 13 14 15 12 8 7 8 8 7 8 9 10 12 13 10 8 9 11 14 17 18 17 15 12 10 9 9 9 9 7 6 6 6 6 5 5 7 11 17 24 31
11 12 12 13 16 18 16 13 9 7 10 17 22 20 14 11 9 8 9 10 10 10 9 7 5 5 5 6 10 17 21 24 27 29 26 20 14 7 4 6 13 18 18 15 12 11 14 16 13 10 9 8 7 7 7 7 8 9 10 10 10 10 10 11 13 14 16 17 16 12 10 8 9 10 9 7 6 7 8 8 7 7 8 10 15
18 20 20 16 13 15 19 17 10 6 9 16 21 21 16 11 9 9 8 9 10 10 10 8 6 4 5 5 7 12 18 23 26 28 27 22 18 12 6 4 9 14 18 18 13 8 11 17 19 16 11 8 7 5 5 6 7 7 8 9 10 10 11 11 11 11 12 14 16 17 15 11 8 7 9 9 7 6 7 9 8 8 9 10 10
17 15 17 20 18 17 19 17 11 7 9 13 18 21 17 12 10 9 8 9 10 10 10 9 7 5 5 5 5 8 14 21 25 27 27 25 21 15 9 6 8 12 16 18 14 9 9 14 20 21 15 9 7 6 5 6 6 7 8 9 11 12 11 11 11 12 12 11 12 14 17 17 14 11 8 7 7 7 6 7 7 7 8 10 11
16 19 14 14 20 24 20 16 11 8 8 11 17 21 18 14 11 8 8 8 9 10 11 10 8 7 5 5 6 6 10 17 23 27 29 28 24 17 12 11 10 11 15 17 16 13 11 12 17 21 19 12 8 7 7 7 7 8 8 9 10 11 12 12 12 12 13 13 12 11 12 14 17 19 18 13 9 7 7 7 7 7 7 8 10
12 27 24 14 14 20 19 15 13 10 7 9 17 21 19 15 11 9 8 8 8 10 11 10 9 7 6 6 6 5 7 11 17 24 28 29 26 21 15 13 12 13 16 19 18 15 12 12 14 18 17 13 9 7 7 8 8 8 8 9 10 10 12 13 13 13 14 14 14 14 12 11 12 16 20 22 19 14 10 8 9 9 8 7 9
-2 16 30 27 19 18 19 16 14 11 8 8 14 21 20 15 12 10 8 7 8 9 10 10 10 8 7 6 6 6 6 8 12 19 25 27 26 23 17 13 14 16 18 19 18 16 13 13 14 15 15 13 10 8 7 8 9 9 9 9 10 11 12 13 13 13 14 16 16 15 14 12 11 10 12 19 24 24 18 12 10 11 11 10 10
1 6 19 27 26 23 22 20 16 12 8 7 13 21 21 16 14 11 8 7 7 8 9 10 10 9 8 7 6 5 5 6 9 14 20 24 25 24 21 17 16 17 18 18 17 15 14 14 14 14 14 13 10 8 7 8 9 9 9 9 10 12 14 15 14 14 15 17 20 21 17 14 12 11 9 10 15 22 24 20 15 11 11 12 13
7 6 9 17 24 24 22 20 18 13 8 7 13 20 19 16 14 12 9 7 7 7 9 10 10 10 9 7 6 6 5 5 6 9 14 20 23 25 25 22 17 16 17 18 16 14 14 14 14 14 14 13 11 9 7 7 8 8 7 7 10 12 13 12 12 13 15 16 19 22 21 18 14 12 10 8 8 12 19 23 22 17 13 11 13
6 11 11 13 19 22 21 20 18 13 7 7 13 18 18 15 15 13 10 8 7 6 8 9 9 10 10 8 7 6 5 6 6 7 10 15 18 22 26 26 22 18 16 17 17 15 14 14 13 13 13 13 12 10 8 7 7 7 6 6 8 11 11 8 7 8 10 13 15 18 21 20 17 13 11 10 10 10 13 18 22 22 20 16 13
4 11 14 13 16 20 22 21 18 12 8 8 14 17 16 15 15 14 10 9 8 6 7 8 9 9 10 10 9 7 6 6 6 6 8 11 14 17 22 26 26 22 17 17 18 17 15 14 12 12 13 13 13 11 9 8 7 6 5 5 7 10 11 9 6 4 3 5 8 12 16 18 18 16 13 10 9 8 10 12 16 19 21 22 21
-0 5 11 13 17 21 23 21 17 12 8 8 14 17 14 13 16 15 10 9 9 7 6 7 9 9 10 10 9 8 7 6 6 6 6 8 11 14 17 21 25 25 21 18 17 16 15 13 12 11 12 13 14 13 10 8 7 6 5 5 6 8 11 11 10 8 5 3 2 4 9 13 16 17 16 13 9 6 5 6 9 12 15 18 21
5 3 6 12 18 22 22 20 16 11 7 9 15 16 13 12 15 16 12 10 10 9 7 7 7 9 10 10 10 9 8 7 7 7 7 7 10 12 14 16 20 24 24 21 18 16 15 13 12 12 12 14 16 15 13 10 8 6 5 5 5 6 9 11 13 12 11 8 6 4 5 7 9 12 16 17 17 14 10 7 6 8 10 12 15
15 8 7 13 21 23 20 18 15 10 7 9 14 16 13 11 14 16 14 11 10 9 8 7 7 7 9 10 10 10 9 8 8 7 7 7 8 10 12 14 16 20 24 24 21 18 15 13 12 12 13 16 19 20 18 14 10 8 6 5 5 6 8 10 13 14 14 14 12 10 9 8 7 7 9 12 16 19 19 16 12 10 9 9 10
13 11 4 6 17 24 22 18 14 9 8 10 13 15 13 10 11 14 15 14 11 8 7 7 7 8 9 9 10 10 9 9 8 8 7 7 6 7 9 10 13 16 19 22 24 23 20 16 13 11 11 14 19 24 24 19 14 10 8 6 5 6 7 8 8 9 10 11 12 12 11 11 12 11 8 7 8 13 17 18 18 16 14 11 10
8 11 6 0 7 18 21 18 14 10 9 10 12 14 14 11 10 11 14 15 14 10 7 6 6 7 8 8 9 10 10 9 9 8 7 7 7 7 7 8 10 12 15 18 22 24 24 22 18 14 11 10 13 21 26 25 20 14 10 8 7 5 6 6 6 4 4 5 7 8 9 10 12 14 13 11 7 7 10 13 15 16 17 15 14
9 14 15 6 3 8 15 17 14 10 9 10 11 13 13 12 10 10 12 15 16 12 8 7 6 6 7 8 8 9 10 9 9 8 7 7 8 8 8 8 9 10 11 14 16 19 22 24 23 21 16 12 9 12 19 24 25 21 15 11 9 8 6 6 6 5 4 3 4 5 6 7 7 10 13 15 13 9 8 8 10 12 14 15 15
12 15 14 9 7 12 18 18 13 9 8 10 11 13 13 11 10 10 11 14 16 14 9 7 7 6 7 8 8 9 9 10 10 10 9 8 7 6 6 6 7 7 9 11 13 15 16 19 21 22 22 19 14 10 10 14 20 23 21 17 13 10 8 7 7 7 7 6 5 4 4 5 5 6 8 12 15 14 11 8 7 8 10 12 13
11 12 10 12 19 24 22 16 12 10 10 11 11 12 13 12 11 11 11 13 15 15 11 9 8 7 6 6 7 8 9 10 11 12 11 10 8 7 6 6 6 7 8 9 10 13 14 15 17 19 21 22 21 17 12 10 11 15 19 20 18 15 12 10 9 9 9 8 8 7 5 5 4 4 5 7 11 14 15 12 9 7 7 9 10
9 9 12 17 23 22 14 9 9 11 12 11 10 11 14 14 13 12 11 12 15 15 13 10 8 7 6 5 5 6 7 8 10 12 12 12 11 10 9 8 7 7 7 7 8 10 12 13 14 15 17 19 21 21 19 15 11 9 11 14 17 18 17 15 13 11 10 9 9 9 8 7 5 5 5 6 8 11 14 15 13 10 7 7 8
3 5 10 13 14 13 11 11 13 13 11 10 10 10 12 13 13 12 12 12 14 15 14 11 9 8 7 6 5 5 5 6 8 10 12 13 13 11 10 9 8 8 7 7 7 8 9 11 13 14 14 15 17 20 21 21 18 14 11 9 10 12 14 16 16 15 14 12 11 10 10 9 8 7 7 7 8 9 11 14 16 14 10 7 7
2 4 8 9 9 10 12 14 14 11 9 9 9 10 11 12 12 12 12 12 13 15 14 13 10 8 7 7 6 5 4 4 5 6 8 10 11 11 10 10 9 8 8 8 7 8 8 9 10 12 13 14 14 16 18 21 22 21 18 14 11 9 9 10 13 14 15 15 14 13 12 11 11 10 9 9 9 9 9 10 14 16 14 11 8
9 8 11 12 11 10 11 12 11 9 9 9 8 9 11 12 13 13 12 12 12 14 14 14 12 9 8 8 8 7 5 4 4 5 6 7 9 10 10 10 10 9 9 9 8 8 7 7 8 10 11 13 14 14 15 17 19 21 22 21 18 14 11 9 9 10 12 13 15 15 15 14 14 14 13 12 11 10 10 10 11 13 15 15 11
11 10 11 11 10 10 12 14 13 11 10 10 10 10 11 12 13 13 12 12 12 12 13 14 13 11 8 8 8 8 7 5 4 5 6 7 8 9 10 10 10 10 10 10 9 9 8 8 8 8 9 11 12 13 14 15 15 17 20 22 23 22 19 15 11 10 9 10 12 13 14 15 15 15 16 16 15 14 12 11 9 10 13 15 14
13 11 9 7 8 11 13 13 13 12 11 10 9 9 10 12 13 13 12 12 11 11 12 13 13 12 10 9 8 8 8 6 5 5 5 6 7 8 8 9 10 10 10 10 10 10 10 9 9 9 9 9 10 11 13 14 14 15 16 17 20 23 24 22 18 14 11 10 10 11 12 12 13 14 15 17 19 19 17 14 11 10 11 13 15
17 16 13 10 10 11 10 10 10 11 10 10 9 9 10 12 13 13 12 11 11 10 11 11 12 12 12 10 9 8 8 7 6 5 5 5 7 8 8 8 8 8 9 10 10 10 10 10 10 10 10 10 10 11 12 12 13 14 15 15 16 18 21 24 24 21 16 12 10 10 11 11 12 12 13 15 18 20 19 16 13 11 11 13 15
15 16 16 15 14 13 12 13 13 13 12 11 11 10 11 12 13 13 13 12 11 10 10 11 11 12 12 11 10 9 8 7 7 6 5 5 6 8 9 8 7 7 7 7 8 9 9 10 10 10 11 11 10 10 11 12 13 13 14 14 15 14 15 19 22 25 24 20 14 10 10 11 11 11 11 12 15 18 18 16 14 12 11 12 14
12 12 12 13 14 14 15 16 16 16 15 14 12 11 11 12 13 13 13 12 11 11 10 10 10 11 11 11 11 9 8 8 7 6 6 5 5 7 8 8 8 8 7 7 6 6 7 8 8 9 10 10 11 11 11 11 12 13 14 14 15 15 15 14 16 20 24 26 22 16 11 9 9 11 11 11 12 14 15 14 14 12 11 11 12
11 11 10 9 9 10 11 12 13 15 15 14 12 12 11 12 13 14 13 12 11 11 10 10 10 10 11 12 11 10 9 8 8 7 7 6 6 6 6 6 7 7 7 7 7 6 6 6 6 7 7 8 9 10 10 10 10 12 13 14 15 16 16 16 15 14 17 22 25 24 18 12 8 9 11 11 11 12 12 12 11 11 11 10 9
Height
5452 5447 5442 5437 5433 5428 5424 5420 5416 5411 5407 5403 5399 5394 5390 5385 5381 5377 5373 5369 5365 5363 5360 5358 5356 5353 5351 5349 5347 5344 5342 5340 5337 5335 5332 5329 5326 5324 5322 5320 5318 5316 5315 5313 5311 5310 5310 5311 5314 5317 5321 5325 5330 5334 5340 5345 5350 5356 5363 5371 5379 5387 5394 5400 5409 5418 5421 5424 5431 5436 5440 5447 5454 5460 5465 5471 5478 5484 5489 5493 5497 5501 5505 5510 5515
5448 5443 5437 5432 5428 5423 5419 5415 5411 5407 5403 5399 5395 5390 5386 5382 5377 5373 5369 5365 5362 5358 5356 5353 5351 5349 5347 5345 5342 5340 5338 5336 5333 5331 5328 5325 5322 5319 5317 5315 5313 5311 5310 5308 5306 5304 5304 5304 5307 5310 5314 5318 5322 5326 5331 5336 5340 5346 5351 5358 5365 5373 5380 5387 5395 5403 5407 5411 5417 5423 5428 5434 5441 5447 5452 5458 5465 5472 5479 5484 5488 5492 5496 5500 5504
5444 5438 5433 5428 5423 5418 5414 5410 5406 5403 5399 5395 5391 5387 5382 5378 5374 5369 5365 5361 5358 5354 5351 5349 5346 5344 5342 5340 5338 5336 5334 5332 5330 5327 5324 5322 5318 5315 5313 5311 5309 5307 5305 5303 5302 5300 5299 5299 5301 5304 5307 5312 5316 5319 5323 5327 5332 5337 5341 5346 5352 5360 5366 5373 5381 5389 5394 5398 5404 5409 5415 5421 5427 5433 5438 5445 5452 5459 5466 5471 5476 5482 5487 5491 5495
5439 5434 5429 5424 5419 5414 5410 5405 5401 5398 5394 5390 5387 5383 5379 5375 5370 5366 5361 5357 5354 5350 5347 5344 5342 5340 5338 5336 5334 5332 5330 5328 5326 5324 5321 5318 5316 5312 5309 5307 5305 5304 5302 5300 5299 5297 5296 5296 5297 5299 5303 5307 5310 5313 5316 5320 5324 5328 5332 5336 5341 5347 5353 5360 5368 5375 5380 5385 5391 5397 5403 5408 5413 5418 5424 5431 5438 5445 5452 5458 5462 5468 5475 5481 5485
5435 5429 5424 5419 5414 5409 5405 5401 5397 5393 5389 5386 5382 5379 5375 5371 5366 5362 5357 5353 5349 5346 5343 5340 5337 5335 5333 5331 5329 5328 5326 5324 5322 5320 5318 5316 5313 5310 5307 5304 5302 5300 5299 5297 5296 5295 5294 5294 5294 5296 5299 5303 5306 5308 5311 5314 5318 5321 5325 5329 5333 5337 5341 5347 5354 5361 5366 5372 5379 5385 5390 5394 5400 5406 5410 5417 5424 5430 5436 5443 5449 5455 5461 5467 5472
5430 5424 5419 5414 5409 5404 5400 5396 5392 5388 5384 5381 5377 5374 5370 5367 5362 5358 5354 5349 5345 5341 5338 5335 5333 5330 5328 5326 5325 5323 5322 5320 5318 5316 5315 5313 5310 5308 5305 5302 5300 5298 5296 5295 5294 5293 5292 5292 5293 5294 5296 5299 5301 5303 5306 5309 5312 5315 5319 5322 5325 5329 5333 5337 5342 5348 5353 5361 5368 5373 5377 5382 5389 5394 5398 5403 5409 5416 5422 5429 5435 5441 5447 5453 5459
5425 5419 5414 5409 5404 5399 5395 5391 5387 5383 5379 5376 5372 5369 5365 5362 5358 5354 5350 5345 5341 5337 5334 5331 5328 5325 5323 5321 5320 5318 5317 5316 5314 5312 5311 5309 5307 5305 5303 5300 5298 5295 5294 5292 5292 5291 5290 5290 5291 5292 5294 5296 5297 5299 5301 5304 5307 5310 5313 5316 5319 5322 5326 5330 5333 5337 5343 5349 5356 5361 5366 5371 5377 5382 5387 5390 5396 5403 5410 5416 5423 5429 5434 5438 5444
5420 5414 5409 5403 5398 5394 5389 5385 5381 5378 5374 5371 5367 5364 5360 5357 5354 5350 5346 5342 5337 5333 5329 5326 5323 5321 5318 5316 5315 5313 5312 5311 5310 5308 5307 5306 5304 5302 5300 5298 5295 5293 5292 5290 5289 5289 5289 5288 5289 5290 5291 5293 5294 5296 5298 5300 5303 5306 5308 5310 5313 5315 5319 5321 5324 5328 5332 5337 5343 5348 5353 5359 5364 5370 5375 5379 5385 5392 5399 5404 5409 5415 5418 5423 5430
5414 5409 5404 5398 5393 5388 5384 5380 5376 5373 5369 5366 5362 5359 5355 5352 5349 5346 5342 5338 5334 5329 5326 5322 5318 5316 5313 5312 5310 5308 5307 5307 5305 5304 5303 5302 5301 5300 5298 5296 5294 5291 5289 5288 5287 5286 5286 5286 5287 5287 5288 5289 5291 5293 5295 5297 5299 5302 5303 5305 5307 5310 5312 5315 5317 5320 5323 5327 5332 5336 5340 5345 5352 5357 5363 5368 5375 5382 5386 5388 5393 5400 5405 5410 5418
5408 5403 5398 5393 5388 5383 5379 5375 5371 5368 5364 5361 5357 5354 5351 5347 5344 5341 5338 5334 5330 5326 5322 5318 5314 5311 5308 5306 5305 5303 5302 5301 5301 5300 5299 5298 5297 5296 5295 5294 5292 5289 5287 5286 5285 5284 5283 5284 5284 5284 5285 5286 5287 5289 5291 5292 5295 5297 5298 5300 5302 5304 5306 5308 5310 5312 5314 5317 5321 5324 5327 5333 5340 5346 5351 5356 5363 5368 5372 5373 5378 5387 5392 5396 5403
5402 5397 5392 5387 5383 5378 5373 5369 5365 5362 5359 5356 5352 5349 5346 5343 5340 5337 5333 5330 5326 5322 5318 5314 5310 5306 5304 5301 5299 5298 5297 5296 5296 5295 5294 5294 5293 5293 5292 5291 5289 5288 5286 5284 5282 5281 5281 5281 5281 5281 5282 5283 5284 5285 5286 5288 5290 5292 5293 5295 5297 5299 5300 5302 5303 5304 5305 5308 5311 5313 5316 5322 5327 5332 5336 5342 5347 5351 5355 5358 5363 5371 5376 5379 5387
5396 5391 5386 5382 5377 5372 5368 5364 5360 5357 5354 5351 5348 5344 5341 5338 5335 5332 5329 5325 5322 5318 5314 5310 5306 5302 5299 5296 5294 5293 5292 5291 5291 5290 5289 5289 5289 5289 5288 5287 5286 5285 5284 5282 5280 5279 5278 5278 5278 5278 5279 5279 5280 5281 5282 5284 5285 5287 5288 5290 5292 5294 5295 5296 5296 5297 5297 5299 5302 5304 5307 5311 5314 5318 5323 5328 5331 5333 5336 5340 5346 5355 5361 5364 5374
5389 5385 5381 5376 5372 5367 5362 5358 5354 5351 5348 5346 5343 5339 5336 5333 5330 5327 5324 5321 5318 5314 5310 5306 5302 5298 5295 5292 5289 5288 5287 5286 5286 5285 5284 5284 5285 5285 5285 5283 5282 5282 5281 5280 5278 5277 5276 5275 5274 5274 5275 5275 5276 5277 5278 5279 5280 5282 5283 5285 5287 5288 5289 5290 5290 5290 5291 5292 5294 5296 5298 5300 5302 5307 5311 5313 5314 5316 5321 5328 5335 5343 5349 5352 5360
5382 5379 5375 5371 5367 5362 5357 5353 5349 5346 5343 5340 5337 5334 5331 5328 5325 5323 5320 5317 5313 5310 5306 5302 5298 5294 5291 5288 5284 5282 5282 5281 5281 5280 5280 5279 5280 5280 5280 5280 5279 5278 5278 5277 5276 5274 5273 5272 5272 5271 5271 5272 5272 5273 5274 5274 5276 5277 5279 5280 5281 5282 5283 5284 5285 5284 5285 5285 5287 5287 5287 5288 5292 5295 5296 5297 5299 5304 5310 5316 5322 5327 5334 5339 5345
5376 5372 5369 5365 5361 5356 5352 5348 5344 5341 5338 5335 5332 5329 5327 5324 5321 5318 5315 5312 5309 5306 5302 5298 5294 5291 5287 5284 5280 5278 5277 5276 5276 5275 5275 5275 5275 5275 5275 5275 5275 5275 5274 5273 5273 5271 5271 5270 5269 5268 5268 5268 5268 5268 5269 5270 5271 5272 5274 5275 5276 5277 5278 5279 5279 5279 5280 5280 5280 5279 5278 5279 5282 5283 5283 5285 5288 5292 5296 5300 5304 5309 5316 5322 5330
5369 5366 5363 5359 5355 5351 5347 5343 5339 5336 5333 5330 5328 5325 5322 5319 5316 5313 5310 5308 5305 5302 5298 5294 5291 5287 5284 5280 5277 5273 5272 5272 5271 5270 5270 5270 5270 5270 5270 5270 5270 5270 5270 5270 5269 5268 5268 5267 5266 5265 5265 5264 5264 5264 5265 5266 5266 5267 5268 5269 5270 5271 5272 5273 5274 5274 5275 5274 5274 5273 5272 5272 5273 5274 5274 5276 5278 5281 5283 5285 5290 5295 5300 5307 5316
5362 5360 5357 5353 5350 5346 5342 5338 5334 5330 5327 5325 5323 5320 5317 5314 5311 5308 5306 5303 5301 5298 5294 5291 5287 5283 5280 5277 5273 5269 5267 5267 5266 5266 5265 5265 5265 5265 5266 5265 5265 5266 5265 5265 5265 5265 5264 5264 5263 5262 5261 5261 5261 5261 5261 5262 5262 5263 5264 5264 5265 5267 5267 5267 5268 5269 5270 5269 5269 5268 5267 5267 5267 5267 5267 5268 5269 5271 5272 5276 5282 5285 5287 5293 5300
5356 5354 5351 5347 5344 5341 5337 5333 5329 5325 5322 5320 5317 5315 5312 5309 5306 5304 5301 5299 5296 5294 5290 5287 5284 5280 5277 5274 5270 5266 5263 5262 5262 5261 5261 5261 5261 5261 5261 5260 5260 5261 5261 5261 5261 5261 5261 5260 5260 5259 5258 5257 5257 5257 5257 5257 5258 5258 5259 5260 5261 5261 5261 5262 5263 5264 5265 5265 5265 5264 5263 5262 5261 5261 5261 5261 5262 5263 5265 5271 5275 5274 5275 5282 5290
5350 5347 5345 5342 5338 5335 5331 5328 5324 5321 5317 5314 5312 5310 5307 5304 5302 5299 5296 5294 5292 5289 5287 5283 5280 5277 5273 5270 5267 5263 5259 5257 5257 5257 5257 5257 5256 5256 5256 5255 5255 5255 5256 5256 5256 5257 5257 5257 5256 5256 5255 5254 5254 5254 5254 5254 5254 5254 5254 5255 5256 5256 5256 5258 5259 5259 5260 5261 5261 5260 5259 5259 5258 5257 5257 5256 5257 5258 5260 5264 5265 5264 5268 5275 5281
5344 5341 5339 5336 5332 5329 5326 5322 5319 5316 5312 5309 5307 5305 5302 5300 5297 5295 5292 5290 5287 5285 5282 5279 5276 5273 5270 5267 5264 5260 5256 5253 5252 5252 5252 5253 5252 5252 5252 5251 5250 5250 5251 5252 5252 5252 5252 5253 5252 5252 5251 5251 5251 5250 5250 5250 5250 5250 5250 5251 5251 5251 5252 5253 5254 5254 5255 5256 5256 5256 5256 5255 5255 5254 5254 5253 5253 5254 5255 5257 5256 5258 5263 5267 5270
5337 5334 5332 5329 5326 5323 5320 5317 5314 5311 5307 5304 5302 5299 5297 5295 5293 5290 5288 5285 5283 5281 5278 5276 5272 5269 5267 5264 5261 5257 5254 5250 5248 5248 5248 5248 5248 5248 5248 5247 5246 5246 5246 5247 5247 5247 5248 5248 5248 5248 5248 5248 5247 5247 5247 5247 5247 5247 5247 5247 5247 5247 5248 5249 5249 5250 5251 5251 5252 5252 5252 5252 5252 5251 5251 5251 5250 5250 5251 5252 5252 5253 5256 5259 5262
5331 5329 5326 5323 5321 5318 5315 5312 5309 5306 5303 5299 5296 5294 5292 5290 5288 5286 5283 5281 5279 5277 5275 5272 5269 5266 5263 5261 5258 5254 5251 5248 5245 5243 5243 5244 5244 5244 5243 5243 5242 5242 5242 5242 5242 5242 5243 5244 5244 5244 5244 5244 5244 5244 5244 5244 5244 5244 5244 5243 5243 5243 5244 5245 5245 5245 5246 5247 5248 5248 5249 5249 5249 5248 5248 5248 5248 5248 5248 5249 5249 5250 5252 5254 5256
5325 5323 5320 5318 5315 5312 5309 5306 5304 5301 5298 5295 5292 5289 5287 5286 5284 5281 5279 5277 5275 5273 5271 5268 5266 5263 5260 5258 5255 5251 5248 5245 5242 5240 5240 5240 5239 5239 5239 5239 5238 5238 5238 5238 5237 5237 5238 5239 5239 5240 5240 5241 5240 5240 5240 5240 5241 5241 5240 5240 5240 5240 5240 5241 5241 5241 5242 5243 5243 5244 5245 5245 5245 5245 5246 5246 5246 5246 5246 5247 5247 5248 5249 5251 5253
5319 5317 5314 5312 5309 5306 5303 5301 5298 5296 5293 5290 5287 5285 5283 5281 5279 5277 5275 5273 5271 5269 5267 5264 5262 5260 5257 5254 5252 5249 5245 5242 5240 5237 5236 5236 5235 5235 5235 5235 5235 5234 5234 5234 5233 5233 5233 5234 5235 5236 5236 5237 5237 5237 5237 5237 5237 5237 5237 5237 5237 5236 5237 5237 5237 5237 5238 5238 5239 5240 5240 5241 5242 5242 5242 5243 5243 5243 5244 5245 5245 5246 5247 5248 5250
5313 5311 5308 5306 5303 5300 5297 5295 5293 5291 5288 5286 5282 5280 5278 5276 5275 5273 5271 5269 5267 5265 5263 5261 5259 5256 5254 5251 5249 5246 5243 5240 5237 5235 5233 5232 5231 5231 5231 5231 5231 5230 5230 5230 5229 5228 5228 5229 5231 5232 5232 5233 5233 5234 5234 5234 5234 5234 5234 5234 5234 5233 5233 5234 5234 5234 5234 5235 5235 5235 5236 5236 5237 5237 5238 5239 5240 5240 5241 5242 5243 5244 5245 5246 5248
5307 5305 5302 5299 5296 5294 5291 5289 5287 5286 5284 5281 5278 5275 5273 5272 5270 5269 5267 5265 5263 5261 5259 5257 5255 5253 5250 5248 5246 5243 5241 5238 5235 5232 5230 5229 5228 5228 5227 5227 5227 5226 5226 5225 5225 5225 5225 5225 5226 5227 5228 5229 5229 5230 5230 5230 5230 5230 5230 5230 5230 5230 5230 5230 5230 5231 5231 5231 5232 5232 5232 5232 5232 5233 5234 5235 5236 5237 5238 5240 5241 5242 5243 5245 5246
5302 5299 5296 5293 5290 5287 5285 5284 5282 5280 5278 5276 5273 5271 5269 5267 5266 5264 5262 5261 5259 5257 5255 5253 5252 5249 5247 5245 5242 5240 5238 5235 5233 5230 5228 5226 5225 5224 5224 5224 5223 5222 5221 5221 5221 5221 5221 5221 5222 5223 5224 5225 5226 5226 5227 5227 5227 5227 5227 5227 5227 5227 5227 5227 5227 5227 5228 5228 5228 5228 5228 5228 5229 5229 5230 5232 5233 5234 5235 5236 5237 5239 5240 5242 5244
5296 5293 5290 5287 5284 5282 5280 5278 5276 5275 5273 5271 5269 5267 5265 5263 5261 5260 5258 5257 5255 5253 5251 5249 5248 5246 5244 5242 5239 5237 5235 5233 5230 5228 5226 5224 5222 5222 5221 5220 5219 5218 5218 5217 5217 5217 5218 5218 5218 5219 5220 5221 5222 5223 5223 5223 5224 5224 5224 5224 5224 5224 5223 5223 5223 5224 5224 5224 5224 5224 5225 5225 5226 5226 5227 5228 5229 5230 5231 5232 5233 5235 5237 5238 5240
5290 5287 5283 5281 5278 5276 5274 5273 5271 5270 5268 5266 5264 5262 5260 5259 5257 5256 5254 5252 5251 5249 5247 5246 5244 5243 5241 5239 5236 5234 5232 5230 5228 5225 5223 5221 5220 5218 5217 5217 5216 5215 5214 5214 5213 5214 5214 5214 5214 5215 5216 5217 5218 5219 5220 5220 5220 5220 5221 5221 5221 5221 5220 5220 5220 5220 5220 5220 5220 5220 5221 5221 5222 5223 5223 5224 5225 5226 5227 5228 5229 5231 5232 5234 5237
5285 5281 5278 5275 5272 5270 5269 5267 5266 5264 5263 5261 5259 5257 5256 5254 5253 5251 5250 5248 5247 5245 5244 5242 5241 5239 5237 5236 5234 5231 5229 5228 5225 5223 5221 5219 5217 5215 5214 5213 5212 5212 5211 5210 5210 5210 5211 5211 5211 5212 5212 5213 5214 5215 5216 5216 5217 5217 5217 5217 5217 5217 5217 5217 5217 5217 5217 5217 5217 5217 5217 5217 5218 5219 5220 5221 5222 5222 5223 5224 5225 5227 5228 5230 5233
5278 5276 5273 5270 5267 5265 5263 5262 5260 5259 5258 5256 5254 5253 5251 5250 5249 5247 5246 5244 5242 5241 5240 5238 5237 5235 5234 5232 5231 5229 5227 5225 5223 5221 5218 5216 5214 5213 5211 5210 5209 5208 5207 5207 5207 5207 5207 5208 5208 5209 5209 5210 5210 5211 5212 5213 5213 5213 5214 5214 5214 5214 5214 5214 5214 5214 5214 5213 5213 5213 5213 5214 5215 5216 5216 5217 5218 5219 5219 5220 5221 5223 5224 5226 5229
5272 5270 5267 5264 5262 5259 5258 5256 5255 5254 5252 5251 5249 5248 5246 5245 5244 5243 5242 5240 5238 5237 5236 5235 5233 5232 5230 5229 5227 5226 5224 5222 5220 5218 5216 5214 5212 5210 5208 5207 5206 5205 5204 5204 5204 5204 5204 5204 5205 5205 5206 5206 5207 5208 5208 5209 5210 5210 5210 5210 5210 5210 5211 5211 5211 5211 5211 5211 5210 5210 5210 5211 5211 5212 5213 5214 5215 5215 5216 5217 5218 5219 5220 5222 5224
5266 5264 5262 5259 5256 5254 5252 5251 5249 5248 5247 5246 5244 5243 5242 5241 5240 5239 5238 5236 5235 5233 5232 5231 5229 5228 5227 5226 5224 5223 5221 5219 5217 5215 5213 5211 5209 5208 5206 5204 5203 5202 5201 5201 5201 5201 5201 5201 5202 5202 5202 5203 5203 5204 5204 5205 5206 5206 5207 5207 5207 5207 5207 5207 5208 5208 5208 5208 5208 5208 5208 5208 5208 5209 5210 5211 5211 5212 5213 5214 5215 5216 5217 5218 5220
5260 5259 5256 5254 5251 5249 5247 5246 5244 5243 5242 5241 5240 5238 5237 5236 5235 5235 5233 5232 5231 5229 5228 5227 5225 5224 5223 5222 5221 5219 5218 5216 5215 5213 5211 5209 5207 5205 5204 5202 5200 5199 5198 5198 5198 5198 5198 5198 5198 5199 5199 5199 5200 5200 5200 5201 5202 5202 5203 5203 5203 5204 5204 5204 5204 5204 5204 5204 5205 5205 5205 5205 5206 5206 5206 5207 5208 5209 5210 5211 5212 5213 5214 5215 5216
5254 5253 5251 5249 5246 5244 5242 5241 5240 5239 5237 5236 5235 5234 5233 5232 5231 5230 5229 5228 5227 5226 5224 5223 5222 5220 5219 5218 5217 5216 5215 5213 5212 5210 5208 5206 5204 5203 5201 5200 5198 5197 5196 5195 5195 5195 5195 5195 5195 5195 5195 5195 5195 5196 5196 5197 5198 5198 5199 5200 5200 5200 5200 5201 5201 5201 5201 5201 5201 5202 5202 5202 5203 5203 5203 5204 5204 5205 5206 5207 5208 5209 5210 5211 5213
5248 5247 5246 5244 5241 5239 5238 5236 5235 5234 5233 5232 5230 5229 5228 5227 5227 5226 5225 5224 5223 5222 5221 5220 5218 5217 5216 5215 5214 5212 5211 5210 5209 5207 5205 5204 5202 5201 5200 5198 5196 5195 5193 5192 5191 5191 5191 5191 5192 5192 5192 5191 5191 5191 5192 5193 5193 5194 5195 5196 5196 5197 5197 5197 5197 5198 5198 5198 5198 5198 5198 5199 5199 5200 5200 5201 5201 5202 5202 5203 5204 5205 5207 5208 5209
5242 5241 5240 5239 5237 5235 5233 5232 5231 5229 5228 5227 5226 5225 5224 5223 5222 5221 5221 5220 5219 5218 5217 5216 5215 5213 5212 5211 5210 5209 5208 5207 5206 5204 5203 5201 5200 5198 5197 5196 5194 5193 5191 5190 5188 5188 5188 5188 5188 5188 5188 5188 5187 5187 5188 5188 5189 5190 5191 5192 5192 5193 5194 5194 5194 5194 5194 5195 5195 5195 5195 5195 5196 5196 5197 5198 5198 5199 5199 5200 5200 5201 5203 5204 5205
5237 5236 5235 5233 5232 5230 5229 5227 5226 5225 5224 5223 5222 5220 5219 5218 5218 5217 5216 5215 5215 5214 5213 5212 5211 5210 5209 5208 5207 5205 5204 5203 5202 5201 5200 5199 5197 5195 5194 5193 5192 5190 5189 5188 5186 5185 5184 5184 5184 5184 5184 5184 5184 5183 5183 5184 5185 5185 5186 5187 5188 5189 5189 5190 5190 5190 5191 5191 5191 5191 5191 5191 5192 5192 5193 5194 5195 5195 5196 5196 5197 5197 5198 5200 5201
5231 5230 5229 5228 5227 5225 5224 5223 5222 5220 5219 5218 5217 5216 5215 5214 5213 5212 5211 5210 5210 5209 5209 5208 5207 5206 5205 5204 5203 5202 5201 5200 5199 5198 5197 5195 5194 5193 5191 5190 5189 5188 5186 5185 5184 5183 5181 5181 5180 5180 5180 5180 5180 5180 5180 5180 5180 5181 5182 5182 5183 5184 5185 5185 5185 5186 5186 5187 5187 5188 5188 5188 5188 5188 5189 5190 5190 5191 5192 5193 5193 5194 5195 5196 5197
5226 5225 5223 5222 5221 5220 5219 5218 5217 5216 5215 5214 5213 5212 5210 5209 5208 5208 5207 5206 5205 5205 5204 5204 5203 5203 5201 5200 5199 5198 5197 5196 5195 5194 5193 5192 5191 5190 5189 5187 5186 5185 5184 5182 5181 5180 5179 5178 5177 5176 5176 5176 5176 5176 5176 5176 5176 5177 5177 5178 5178 5179 5180 5180 5181 5181 5182 5182 5183 5183 5184 5184 5184 5184 5185 5185 5186 5187 5188 5189 5190 5190 5191 5192 5193
5221 5219 5218 5217 5216 5215 5214 5213 5212 5211 5211 5210 5208 5207 5206 5205 5204 5203 5202 5202 5201 5200 5200 5200 5199 5199 5198 5197 5195 5194 5193 5192 5191 5190 5189 5188 5187 5186 5185 5184 5183 5182 5181 5180 5178 5177 5176 5175 5174 5173 5172 5172 5172 5172 5172 5172 5172 5172 5173 5173 5174 5174 5175 5175 5176 5176 5177 5177 5178 5178 5179 5179 5180 5180 5180 5181 5181 5182 5183 5184 5185 5186 5187 5188 5189
5216 5214 5213 5212 5211 5210 5209 5209 5208 5207 5206 5205 5204 5203 5202 5201 5200 5199 5198 5197 5197 5196 5195 5195 5195 5194 5194 5193 5192 5191 5190 5189 5188 5187 5186 5185 5184 5183 5181 5180 5179 5179 5178 5177 5176 5175 5174 5172 5171 5170 5169 5169 5168 5168 5168 5168 5168 5168 5168 5169 5169 5169 5170 5170 5171 5171 5172 5172 5173 5173 5174 5174 5175 5175 5176 5176 5177 5177 5178 5179 5180 5181 5182 5183 5184
5211 5209 5208 5207 5206 5205 5205 5204 5203 5203 5202 5201 5200 5199 5198 5197 5196 5195 5194 5193 5192 5192 5191 5191 5190 5190 5189 5189 5188 5187 5186 5185 5184 5183 5183 5182 5181 5180 5178 5177 5176 5175 5174 5173 5172 5172 5171 5170 5168 5167 5166 5166 5165 5164 5164 5164 5164 5164 5164 5164 5164 5165 5165 5165 5166 5166 5167 5167 5167 5168 5168 5169 5170 5170 5171 5171 5172 5172 5173 5174 5175 5176 5177 5178 5179
5206 5205 5204 5202 5201 5201 5200 5199 5199 5198 5197 5196 5195 5194 5193 5192 5191 5190 5190 5189 5188 5187 5187 5186 5186 5185 5185 5184 5184 5183 5182 5181 5180 5180 5179 5178 5177 5176 5175 5174 5173 5172 5171 5170 5169 5168 5167 5166 5165 5164 5164 5163 5162 5161 5160 5160 5159 5159 5159 5159 5159 5160 5160 5160 5161 5161 5161 5162 5162 5162 5163 5163 5164 5165 5165 5166 5167 5167 5168 5169 5169 5170 5171 5172 5174
5202 5200 5199 5198 5197 5196 5195 5195 5194 5193 5193 5192 5191 5190 5189 5188 5187 5186 5185 5184 5183 5183 5182 5182 5181 5181 5180 5180 5179 5179 5178 5177 5176 5175 5175 5174 5173 5172 5171 5170 5169 5168 5167 5166 5165 5164 5164 5163 5162 5161 5160 5159 5159 5158 5157 5156 5156 5155 5155 5154 5154 5154 5155 5155 5155 5156 5156 5156 5157 5157 5157 5158 5158 5159 5160 5160 5161 5162 5162 5163 5164 5165 5166 5167 5168
5198 5196 5195 5194 5193 5192 5191 5190 5189 5189 5188 5187 5186 5185 5184 5183 5182 5181 5180 5179 5179 5178 5177 5177 5176 5176 5175 5175 5175 5174 5173 5172 5171 5171 5170 5169 5168 5167 5166 5165 5164 5163 5163 5162 5161 5160 5160 5159 5158 5157 5157 5156 5155 5154 5153 5153 5152 5151 5151 5150 5150 5149 5149 5150 5150 5150 5150 5151 5151 5151 5152 5152 5153 5153 5154 5154 5155 5156 5157 5158 5158 5159 5160 5161 5162
5194 5192 5191 5190 5189 5188 5187 5186 5185 5184 5183 5182 5181 5180 5179 5178 5177 5176 5175 5174 5174 5173 5173 5172 5172 5171 5171 5170 5170 5169 5169 5168 5167 5166 5165 5165 5164 5163 5162 5161 5160 5159 5158 5158 5157 5156 5156 5155 5154 5153 5153 5152 5151 5150 5150 5149 5148 5147 5147 5146 5145 5145 5144 5144 5144 5144 5145 5145 5145 5146 5146 5147 5147 5148 5148 5149 5149 5150 5151 5152 5153 5154 5155 5156 5157
5190 5188 5187 5185 5184 5183 5182 5180 5179 5178 5178 5177 5176 5175 5174 5173 5172 5171 5170 5170 5169 5168 5168 5167 5167 5166 5166 5165 5165 5164 5164 5163 5162 5162 5161 5160 5160 5159 5158 5157 5156 5155 5155 5154 5153 5152 5152 5151 5150 5150 5149 5148 5147 5146 5145 5145 5144 5143 5142 5142 5141 5140 5140 5139 5139 5139 5139 5139 5140 5140 5140 5141 5141 5142 5142 5143 5144 5144 5145 5146 5147 5148 5149 5150 5151
5186 5184 5182 5181 5179 5178 5177 5175 5174 5173 5172 5172 5171 5170 5169 5168 5167 5166 5165 5165 5164 5163 5163 5162 5162 5161 5161 5160 5160 5159 5159 5158 5158 5157 5156 5156 5155 5154 5154 5153 5152 5151 5151 5150 5149 5148 5148 5147 5146 5146 5145 5144 5143 5142 5141 5140 5140 5139 5138 5137 5137 5136 5135 5134 5134 5134 5134 5134 5134 5134 5135 5135 5136 5136 5137 5137 5138 5139 5140 5141 5142 5143 5144 5145 5146
5182 5180 5178 5176 5175 5173 5172 5170 5169 5168 5167 5166 5165 5164 5164 5163 5162 5161 5160 5159 5159 5158 5157 5157 5156 5156 5156 5155 5155 5154 5154 5153 5153 5152 5151 5151 5150 5150 5149 5148 5148 5147 5146 5146 5145 5144 5144 5143 5142 5142 5141 5140 5139 5138 5137 5136 5135 5134 5134 5133 5132 5131 5131 5130 5129 5129 5128 5128 5128 5129 5129 5130 5130 5131 5131 5132 5133 5133 5134 5135 5136 5137 5138 5139 5140
5177 5175 5173 5172 5170 5168 5167 5165 5164 5163 5162 5161 5160 5159 5158 5157 5156 5156 5155 5154 5153 5153 5152 5152 5151 5151 5150 5150 5150 5149 5149 5148 5148 5147 5146 5146 5145 5144 5144 5143 5143 5142 5142 5141 5140 5140 5139 5139 5138 5137 5136 5136 5135 5134 5133 5132 5131 5130 5129 5128 5127 5127 5126 5125 5124 5124 5123 5123 5123 5123 5123 5124 5124 5125 5126 5126 5127 5128 5129 5130 5131 5132 5133 5134 5135